Погода в Сосновом Боре

Россия / Санкт-Петербург и Ленинградская область     60°21′27″N   29°06′37″E
темп.,
°C
ветер,
м/с
пор.,
м/с
влажн.,
%
обл.,
%
осадки,
мм/ч
давл.,
гПа
погр.,
м
27 ноября, сб
сб2700:00−4с2484100 0.0 1002243
03:00−4св3578100 0.0 1003278
06:00−5св4786100 0.0 1005248
09:00−6св4884100 0.0 1006281
12:00−4св51081100 0.0 1006355
15:00−3св61179100 0.0 1005603
18:00−3св71478100 0.0 1004686
21:00−3св81476100 0.0 1003736
28 ноября, вс
вс2800:00−3св81577100 0.0 1002754
03:00−3св81579100 0.0 1001736
06:00−4св81477100 0.0 1001736
09:00−3св71375100 0.0 1001756
12:00−3св61272100 0.0 1002717
15:00−3св61073100 0.0 1003802
18:00−4св51071100 0.0 1005749
21:00−4св4872100 0.0 1007593
29 ноября, пн
пн2900:00−5св377798 0.0 1009408
03:00−5всв5979100 0.0 1009512
06:00−5всв5985100 0.1 1009495
09:00−4всв51085100 0.1 1008861
12:00−4в71179100 0.0 1007807
15:00−4всв71180100 0.1 1005735
18:00−4всв71284100 0.0 1002686
21:00−3всв71383100 0.1 999679
30 ноября, вт
вт3000:00−4св81492100 1.1 995623
03:00−3св81587100 1.6 991717
06:00−4ссв71389100 0.3 987788
09:00−5ссв7128899 0.8 985709
12:00−6с61086100 0.2 985478
15:00−6ссз5889100 0.4 984487
18:00−6ссз5983100 0.2 983782
21:00−5ссз4886100 0.3 983733
1 декабря, ср
ср100:00−5сз688382 0.1 983839
03:00−5сз687882 0.2 984863
06:00−5зсз587780 0.1 984829
09:00−5сз697776 0.2 985863
12:00−5зсз687887 0.1 9861020
15:00−5сз688398 0.4 986945
18:00−5сз5881100 0.3 987914
21:00−5сз597399 0.4 987877